This demonstration page uses our WeatherBlox Daily Observations layout. Learn more.

Left ArrowRight Arrow

53.62937, 11.41316

Hourly Observations for April 28, 2018

Temp ( °F °C ) Dew Point ( °F °C ) Humidity (%) Winds ( mph kmh ) Pressure ( in mb ) Visibility ( mi km ) Precip ( " mm )
6:50 am 06:50 Mostly Sunny 43 6 43 6 100 100 NE 2 4 29.80 1009 7 11 N/A
7:20 am 07:20 Mostly Sunny 45 7 43 6 93 93 ENE 3 6 29.80 1009 7 11 N/A
7:50 am 07:50 Mostly Sunny 50 10 43 6 76 76 VRB 2 4 29.80 1009 7 11 N/A
8:20 am 08:20 Mostly Sunny 52 11 43 6 72 72 SE 5 7 29.80 1009 7 11 N/A
8:50 am 08:50 Mostly Sunny 54 12 43 6 67 67 SE 3 6 29.80 1009 7 11 N/A
9:20 am 09:20 Mostly Sunny 55 13 43 6 63 63 SE 6 9 29.80 1009 7 11 N/A
9:50 am 09:50 Mostly Sunny 55 13 45 7 67 67 ESE 5 7 29.80 1009 7 11 N/A
10:20 am 10:20 Mostly Sunny 59 15 45 7 59 59 SE 5 7 29.80 1009 7 11 N/A
10:50 am 10:50 Mostly Sunny 61 16 45 7 55 55 VRB 6 9 29.80 1009 7 11 N/A
11:20 am 11:20 Mostly Sunny 61 16 46 8 59 59 SSE 6 9 29.80 1009 7 11 N/A
11:50 am 11:50 Mostly Sunny 63 17 46 8 56 56 VRB 5 7 29.80 1009 7 11 N/A
12:20 pm 12:20 Mostly Sunny 63 17 46 8 56 56 SSE 7 11 29.80 1009 7 11 N/A
12:50 pm 12:50 Mostly Sunny 64 18 46 8 52 52 SW 13 20 29.80 1009 7 11 N/A
1:20 pm 13:20 Partly Cloudy 64 18 48 9 56 56 SW 12 19 29.80 1009 30 48 N/A
1:50 pm 13:50 Partly Cloudy 64 18 45 7 49 49 SW 14 22 29.83 1010 30 48 N/A
2:20 pm 14:20 Mostly Sunny 64 18 46 8 52 52 SSW 13 20 29.83 1010 7 11 N/A
2:50 pm 14:50 Partly Cloudy with Showers Nearby 64 18 45 7 49 49 SW 15 24 29.83 1010 30 48 N/A
3:20 pm 15:20 Partly Cloudy 63 17 46 8 56 56 SW 15 24 29.83 1010 30 48 N/A
3:50 pm 15:50 Mostly Sunny 63 17 45 7 52 52 SSW 14 22 29.83 1010 7 11 N/A
4:20 pm 16:20 Mostly Sunny 66 19 46 8 49 49 SW 14 22 29.83 1010 7 11 N/A
4:50 pm 16:50 Mostly Sunny 63 17 45 7 52 52 SSW 13 20 29.83 1010 7 11 N/A
5:20 pm 17:20 Mostly Sunny 63 17 45 7 52 52 SSW 9 15 29.83 1010 7 11 N/A
5:50 pm 17:50 Mostly Sunny 63 17 46 8 56 56 SW 7 11 29.83 1010 7 11 N/A
6:20 pm 18:20 Mostly Sunny 63 17 46 8 56 56 SW 6 9 29.83 1010 7 11 N/A
6:50 pm 18:50 Mostly Sunny 64 18 46 8 52 52 SW 7 11 29.83 1010 7 11 N/A
7:20 pm 19:20 Mostly Sunny 61 16 46 8 59 59 SW 6 9 29.83 1010 7 11 N/A
7:50 pm 19:50 Mostly Sunny 61 16 46 8 59 59 SW 2 4 29.83 1010 7 11 N/A
8:20 pm 20:20 Mostly Sunny 61 16 46 8 59 59 VRB 1 2 29.83 1010 7 11 N/A
8:50 pm 20:50 Partly Cloudy 59 15 46 8 63 63 VRB 1 2 29.85 1011 30 48 N/A

Powered by AerisWeather